Stuart, FL

7:06 AM EST on January 19, 2018 (GMT -0500)
Witham

Weather History for KSUA - November, 2012

Change the Weather History Date:

Sunday, November 4, 2012

  Actual Average Record
Temperature  
Mean Temperature 70 °F -  
Max Temperature 80 °F 82 °F 88 °F (1984)
Min Temperature 59 °F 65 °F 42 °F (1966)
Cooling Degree Days 4    
Growing Degree Days 20 (Base 50)    
Moisture  
Dew Point 60 °F    
Average Humidity 80    
Maximum Humidity 100    
Minimum Humidity 48    
Precipitation  
Precipitation 0.00 in - - ()
Sea Level Pressure  
Sea Level Pressure 30.08 in    
Wind  
Wind Speed 1 mph (SSW)    
Max Wind Speed 12 mph    
Max Gust Speed -    
Visibility 9 miles    
Events      
Averages and records for this station are not official NWS values.
T = Trace of Precipitation, MM = Missing Value Source: NWS Daily Summary

Daily Weather History Graph

Daily Weather History Graph

Search for Another Location

Airport or City:

Trip Planner

Search our weather history database for the weather conditions in past years. The results will help you decide how hot, cold, wet, or windy it might be!

Date:

Astronomy

Nov. 04, 2012 Rise Set
Actual Time 6:33 AM EST 5:35 PM EST
Civil Twilight 6:09 AM EST 5:59 PM EST
Nautical Twilight 5:41 AM EST 6:26 PM EST
Astronomical Twilight 5:14 AM EST 6:54 PM EST
Moon 10:15 PM EST (11/4) 11:10 AM EST (11/4)
Length of Visible Light 11h 50m
Length of Day
11h 01m
Waning Gibbous, 72% of the Moon is Illuminated
Nov 4
Waning Gibbous
Nov 6
Last Quarter
Nov 13
New
Nov 20
First Quarter
Nov 28
Full

Hourly Weather History & Observations

Time (EST) Temp. Heat Index Dew Point Humidity Pressure Visibility Wind Dir Wind Speed Gust Speed Precip Events Conditions
12:15 AM 62.6 °F - 59.0 °F 88% 30.12 in 10.0 mi Calm Calm - N/A   Clear
12:35 AM 62.6 °F - 59.0 °F 88% 30.12 in 10.0 mi Calm Calm - N/A   Clear
12:55 AM 64.4 °F - 60.8 °F 88% 30.11 in 10.0 mi Calm Calm - N/A   Clear
1:15 AM 62.6 °F - 59.0 °F 88% 30.11 in 10.0 mi Calm Calm - N/A   Clear
1:35 AM 62.6 °F - 60.8 °F 94% 30.11 in 10.0 mi Calm Calm - N/A   Clear
1:55 AM 62.6 °F - 59.0 °F 88% 30.10 in 10.0 mi Calm Calm - N/A   Clear
1:15 AM 62.6 °F - 60.8 °F 94% 30.11 in 10.0 mi Calm Calm - N/A   Clear
1:35 AM 62.6 °F - 60.8 °F 94% 30.11 in 10.0 mi Calm Calm - N/A   Clear
1:55 AM 62.6 °F - 59.0 °F 88% 30.10 in 10.0 mi Calm Calm - N/A   Clear
2:15 AM 62.6 °F - 60.8 °F 94% 30.10 in 10.0 mi Calm Calm - N/A   Clear
2:35 AM 60.8 °F - 59.0 °F 94% 30.10 in 10.0 mi Calm Calm - N/A   Clear
2:55 AM 60.8 °F - 59.0 °F 94% 30.09 in 7.0 mi Calm Calm - N/A   Clear
3:15 AM 60.8 °F - 59.0 °F 94% 30.09 in 7.0 mi Calm Calm - N/A   Clear
3:35 AM 60.8 °F - 59.0 °F 94% 30.09 in 7.0 mi Calm Calm - N/A   Clear
3:55 AM 60.8 °F - 59.0 °F 94% 30.10 in 10.0 mi Calm Calm - N/A   Clear
4:15 AM 59.0 °F - 57.2 °F 94% 30.10 in 7.0 mi Calm Calm - N/A   Clear
4:35 AM 60.8 °F - 59.0 °F 94% 30.10 in 7.0 mi WNW 3.5 mph - N/A   Clear
4:55 AM 59.0 °F - 57.2 °F 94% 30.10 in 7.0 mi West 3.5 mph - N/A   Clear
5:15 AM 60.8 °F - 59.0 °F 94% 30.10 in 10.0 mi Calm Calm - N/A   Clear
6:47 AM 59.0 °F - 59.0 °F 100% 30.11 in 7.0 mi Calm Calm - N/A   Partly Cloudy
7:47 AM 64.4 °F - 62.6 °F 94% 30.12 in 7.0 mi Calm Calm - N/A   Partly Cloudy
8:47 AM 71.6 °F - 64.4 °F 78% 30.14 in 7.0 mi WNW 5.8 mph - N/A   Partly Cloudy
9:47 AM 75.2 °F - 64.4 °F 69% 30.14 in 7.0 mi West 5.8 mph - N/A   Clear
10:47 AM 77.0 °F - 59.0 °F 54% 30.12 in 7.0 mi Calm Calm - N/A   Partly Cloudy
11:47 AM 78.8 °F - 59.0 °F 51% 30.10 in 7.0 mi Calm Calm - N/A   Scattered Clouds
12:47 PM 80.6 °F 81.1 °F 59.0 °F 48% 30.07 in 7.0 mi East 10.4 mph - N/A   Scattered Clouds
1:47 PM 80.6 °F 81.1 °F 59.0 °F 48% 30.05 in 7.0 mi East 11.5 mph - N/A   Scattered Clouds
2:47 PM 78.8 °F - 60.8 °F 54% 30.05 in 7.0 mi East 8.1 mph - N/A   Scattered Clouds
3:55 PM 78.8 °F - 60.8 °F 54% 30.02 in 7.0 mi East 8.1 mph - N/A   Scattered Clouds
5:47 PM 73.4 °F - 64.4 °F 73% 30.02 in 7.0 mi SE 4.6 mph - N/A   Scattered Clouds
7:15 PM 73.4 °F - 62.6 °F 69% 30.04 in 10.0 mi Calm Calm - N/A   Scattered Clouds
7:35 PM 71.6 °F - 62.6 °F 73% 30.04 in 10.0 mi Calm Calm - N/A   Clear
7:55 PM 71.6 °F - 60.8 °F 69% 30.04 in 10.0 mi Calm Calm - N/A   Clear
8:15 PM 71.6 °F - 62.6 °F 73% 30.05 in 10.0 mi South 4.6 mph - N/A   Clear
8:35 PM 71.6 °F - 62.6 °F 73% 30.05 in 10.0 mi South 3.5 mph - N/A   Clear
8:55 PM 71.6 °F - 60.8 °F 69% 30.05 in 10.0 mi South 3.5 mph - N/A   Clear
9:15 PM 69.8 °F - 62.6 °F 78% 30.05 in 10.0 mi SSW 3.5 mph - N/A   Clear
9:35 PM 69.8 °F - 62.6 °F 78% 30.05 in 10.0 mi SSW 4.6 mph - N/A   Clear
9:55 PM 69.8 °F - 60.8 °F 73% 30.05 in 10.0 mi SW 4.6 mph - N/A   Clear
10:15 PM 69.8 °F - 60.8 °F 73% 30.05 in 10.0 mi SW 3.5 mph - N/A   Clear
10:35 PM 69.8 °F - 60.8 °F 73% 30.05 in 10.0 mi SSW 3.5 mph - N/A   Clear
10:55 PM 69.8 °F - 60.8 °F 73% 30.05 in 10.0 mi SW 3.5 mph - N/A   Clear